Location: Berlin
(38.3226°N, 75.2177°W)
Time: 05:34:11
(UTC+00:00)

Milstar 3 - Pass Details

Date: 26 October 2020
Orbit: 1101 x 5144 km, 28.2° (Epoch: 25 September)

Event Time Altitude Azimuth Distance (km) Brightness Sun altitude
Rises 01:28:52 0° 261° (W) 3,914 6.4 -39.6°
Reaches altitude 10° 01:31:38 10° 252° (WSW) 2,958 5.5 -40.1°
Enters shadow 01:34:44 25° 229° (SW) 2,115 4.4 -40.7°
